Regional Weather Roundup
Issued by NWS

Home | Current Version | Previous Version | Text Only | Print | Product List | Glossary Off
Versions: 1 2 3 4 5 6 7 8 9 10 11 12 13 14 15 16 17 18 19 20 21 22 23 24 25 26 27 28 29 30 31 32 33 34 35 36 37 38 39 40 41 42 43 44 45 46 47 48 49 50

000
ASUS43 KOAX 191310
RWRNE

WEATHER ROUNDUP FOR NEBRASKA
NATIONAL WEATHER SERVICE OMAHA NE
800 AM CDT THU OCT 19 2017

NOTES: SATELLITE DATA IS BEING USED TO AUGMENT CLOUD COVER ABOVE
       12000 FEET.
       "FAIR" INDICATES FEW OR NO CLOUDS BELOW 12,000 FEET WITH NO
       SIGNIFICANT WEATHER AND/OR OBSTRUCTIONS TO VISIBILITY.


NEZ001>004-019>022-054>056-191400-
NEBRASKA PANHANDLE

CITY           SKY/WX    TMP DP  RH WIND       PRES   REMARKS
SCOTTSBLUFF    CLEAR     34  28  79 E6        30.00F WCI  29
ALLIANCE       CLOUDY    32  28  85 S6        30.00S WCI  26
CHADRON        CLOUDY    46  27  47 CALM      29.93S
GORDON         FAIR      47  34  59 SW16      29.95F
KIMBALL        CLOUDY    37  26  66 W8        30.06S WCI  30
SIDNEY         CLOUDY    42  32  67 S12       30.04F
$$

NEZ057>060-069>072-079>082-191400-
SOUTHWEST NEBRASKA

CITY           SKY/WX    TMP DP  RH WIND       PRES   REMARKS
NORTH PLATTE   CLOUDY    34  31  88 CALM      30.06S
IMPERIAL       CLOUDY    35  30  82 W7        30.06F WCI  29
LEXINGTON      CLOUDY    34  32  91 W3        30.06R
MCCOOK         CLOUDY    34  33  96 SW3       30.06S
OGALLALA       CLOUDY    34  31  89 CALM      30.05S
$$

NEZ005>010-023>029-035>040-094-191400-
NORTH CENTRAL NEBRASKA

CITY           SKY/WX    TMP DP  RH WIND       PRES   REMARKS
VALENTINE      CLOUDY    44  34  67 SW6       29.98S
AINSWORTH      CLOUDY    45  36  70 S10       30.01S
BROKEN BOW     CLOUDY    34  31  88 CALM      30.04S
O`NEILL        CLOUDY    42  37  82 S7        30.02F
ORD            CLOUDY    31  29  92 S3        30.04F
THEDFORD       CLOUDY    41  34  77 CALM      30.03S
$$

NEZ041-046>049-061>064-073>077-083>087-191400-
SOUTH CENTRAL NEBRASKA

CITY           SKY/WX    TMP DP  RH WIND       PRES   REMARKS
GRAND ISLAND   CLOUDY    38  37  97 W5        30.06S WCI  34
AURORA         CLOUDY    38  35  89 CALM      30.05S
HASTINGS       CLOUDY    40  34  79 CALM      30.06S
HEBRON         CLEAR     40  39  96 CALM      30.05S
HOLDREGE       CLOUDY    36  34  90 CALM      30.06R
KEARNEY        CLOUDY    37  33  85 CALM      30.05F
YORK           CLEAR     39  39 100 CALM      30.06S
$$

NEZ011>018-030>034-042>045-191400-
NORTHEAST NEBRASKA

CITY           SKY/WX    TMP DP  RH WIND       PRES   REMARKS
NORFOLK        CLOUDY    35  35 100 S3        30.04F
ALBION         CLOUDY    35  33  90 CALM      30.05S
BLAIR          CLEAR     48  45  89 E6        30.06S
COLUMBUS       CLOUDY    36  34  92 CALM      30.06S
FREMONT        CLOUDY    40  39  97 CALM      30.06S
TEKAMAH        CLEAR     38  36  92 CALM      30.07R
WAYNE          CLOUDY    34  32  92 SW3       30.04F
$$

NEZ050>053-065>068-078-088>093-191400-
SOUTHEAST NEBRASKA

CITY           SKY/WX    TMP DP  RH WIND       PRES   REMARKS
LINCOLN        CLEAR     44  40  85 CALM      30.07S
OMAHA EPPLEY   PTCLDY    44  39  82 CALM      30.08R
BEATRICE       CLEAR     43  42  97 CALM      30.06R
FALLS CITY     CLEAR     45  45 100 SE5       30.07R
NEBRASKA CITY  CLEAR     47  47 100 CALM      30.07S FOG
PLATTSMOUTH    CLEAR     48  47  97 E3        30.07R
$$

NEZ044-045-051>053-067-191400-
OMAHA AREA

CITY           SKY/WX    TMP DP  RH WIND       PRES   REMARKS
OMAHA EPPLEY   PTCLDY    44  39  82 CALM      30.08R
BLAIR          CLEAR     48  45  89 E6        30.06S
FREMONT        CLOUDY    40  39  97 CALM      30.06S
MILLARD        CLEAR     46  45  97 CALM      30.07S
OFFUTT AFB     CLEAR     41  40  97 E3        30.06S
PLATTSMOUTH    CLEAR     48  47  97 E3        30.07R
WAHOO          FAIR      42  39  91 CALM      30.06S
$$




USA.gov is the U.S. government's official web portal to all federal, state and local government web resources and services.